Location: Julian California
(33.0790°N, 116.6010°W)
Time: 09:22:47
(UTC-07:00)

Cosmos 1733 - Pass Details

Date: 14 June 2018
Orbit: 505 x 525 km, 82.5° (Epoch: 15 October)

Event Time Altitude Azimuth Distance (km) Brightness Sun altitude
Rises 21:31:13 0° 351° (N) 2,612 7.7 -16.8°
Reaches altitude 10° 21:33:21 10° 349° (N) 1,721 6.7 -17.2°
Maximum altitude 21:37:07 72° 265° (W) 532 3.3 -17.7°
Enters shadow 21:38:49 30° 187° (S) 916 4.1 -18.0°
